Regional Weather Roundup
Issued by NWS Little Rock, AR

Home | Current Version | Previous Version | Graphics & Text | Print | Product List | Glossary On
Versions: 1 2 3 4 5 6 7 8 9 10 11 12 13 14 15 16 17 18 19 20 21 22 23 24 25 26 27
000
ASUS44 KLZK 030405
RWRLZK

WEATHER ROUNDUP FOR ARKANSAS
NATIONAL WEATHER SERVICE LITTLE ROCK AR
1100 PM CDT MON MAY 02 2016

NOTE: "FAIR" INDICATES FEW OR NO CLOUDS BELOW 12,000 FEET WITH NO
SIGNIFICANT WEATHER AND/OR OBSTRUCTIONS TO VISIBILITY.

ARZ001-003-010-029-030500-
NORTHWEST ARKANSAS

CITY           SKY/WX    TMP DP  RH WIND       PRES   REMARKS
FAYETTEVILLE   CLOUDY    47  47 100 S3        30.09R
FORT SMITH     CLEAR     52  45  77 CALM      30.09S
HARRISON       CLOUDY    50  46  86 W5        30.08R
BENTONVILLE    MOCLDY    52  43  71 CALM      30.09S
ROGERS         CLOUDY    50  47  89 NW5       30.09S
SILOAM SPGS    CLOUDY    50  39  66 CALM      30.10S
HIGHFILL       CLOUDY    51  47  86 CALM      30.08S
$$

ARZ004-005-016-030500-
NORTH CENTRAL ARKANSAS

CITY           SKY/WX    TMP DP  RH WIND       PRES   REMARKS
BATESVILLE     CLOUDY    57  48  72 NW5       30.05R
FLIPPIN        CLOUDY   N/A N/A N/A NW3       30.04S
MTN HOME       CLOUDY    53  46  77 VRB5      30.06R
$$

ARZ040-041-030500-
WEST CENTRAL ARKANSAS

CITY           SKY/WX    TMP DP  RH WIND       PRES   REMARKS
MENA           PTCLDY    54  48  82 CALM      30.08S
MOUNT IDA      CLOUDY    54  48  80 CALM      30.05R
$$

ARZ009-017-025-026-028-030500-
NORTHEAST ARKANSAS

CITY           SKY/WX    TMP DP  RH WIND       PRES   REMARKS
CORNING          N/A     59  48  67 N12       30.04S
JONESBORO      CLOUDY    62  50  64 N7        30.02R
NEWPORT        PTCLDY    58  52  80 NW7       30.04R
WALNUT RIDGE   CLOUDY    59  45  58 N10       30.03S
BLYTHEVILLE    CLOUDY    60  54  80 N16       30.01R
$$

ARZ022-023-033-042-044-030500-
CENTRAL ARKANSAS

CITY           SKY/WX    TMP DP  RH WIND       PRES   REMARKS
LITTLE ROCK    PTCLDY    61  52  72 NW12      30.03S
N LITTLE ROCK    N/A     59  53  79 N5        30.03R
JACKSONVILLE   CLOUDY    61  51  71 NW7       30.03R
SEARCY         PTCLDY    57  52  82 CALM      30.05R
HOT SPRINGS    PTCLDY    57  50  77 CALM      30.06R
RUSSELLVILLE   CLOUDY    58  48  69 NW9       30.06R
$$

ARZ036-030500-
EAST ARKANSAS

CITY           SKY/WX    TMP DP  RH WIND       PRES   REMARKS
WEST MEMPHIS   CLOUDY    62  55  77 VRB3      30.00S
$$

ARZ050-053-066-070-073-030500-
SOUTHWEST ARKANSAS

CITY           SKY/WX    TMP DP  RH WIND       PRES   REMARKS
ARKADELPHIA    FAIR      60  57  89 NW3       30.05R
CAMDEN         CLEAR     55  54  94 CALM      30.04R FOG
TEXARKANA      CLEAR     56  51  84 NW8       30.07R
EL DORADO      CLEAR     57  57 100 CALM      30.04R
DE QUEEN       CLEAR     53  49  86 CALM      30.06S
$$

ARZ056-057-069-030500-
SOUTHEAST ARKANSAS

CITY           SKY/WX    TMP DP  RH WIND       PRES   REMARKS
PINE BLUFF     CLEAR     59  55  87 CALM      30.03R
STUTTGART      CLEAR     59  52  77 N7        30.02S
MONTICELLO     MOCLDY    59  57  93 CALM      30.02S

$$






USA.gov is the U.S. government's official web portal to all federal, state and local government web resources and services.